EW1145 Weather Reports


Display with metric or nautical units.
time (UTC)temp
F
wind
direction
speed
MPH
gust
MPH
rain 1hr
in
rain 24hr
in
rain mn
in
humidity
%
barometer
mb
20260507014602 65 312 0.0 5.0 0.00 0.00 0.00 66 1019.4
20260507013049 65 95 1.0 8.0 0.00 0.00 0.00 67 1019.4
20260507011600 66 22 0.0 5.0 0.00 0.00 0.00 66 1019.5
20260507010049 65 13 0.0 5.0 0.00 0.00 0.00 68 1019.5
20260507004548 66 46 1.0 7.0 0.00 0.00 0.00 68 1019.4
20260507003047 66 355 0.0 4.0 0.00 0.00 0.00 68 1019.4
20260507001604 67 22 1.0 6.0 0.00 0.00 0.00 65 1019.3
20260507000053 68 61 0.0 8.0 0.00 0.00 0.00 65 1019.3
20260506234547 68 17 0.0 5.0 0.00 0.00 0.00 65 1019.3
20260506233045 68 336 0.0 5.0 0.00 0.00 0.00 66 1019.2
20260506231544 69 23 0.0 3.0 0.00 0.00 0.00 66 1019.3
20260506230047 69 340 0.0 1.0 0.00 0.00 0.00 67 1019.3
20260506224542 68 345 1.0 5.0 0.00 0.00 0.00 67 1019.4
20260506223040 68 105 0.0 2.0 0.00 0.00 0.00 67 1019.6
20260506221539 68 58 0.0 1.0 0.00 0.00 0.00 68 1019.7
20260506220042 68 119 0.0 3.0 0.00 0.00 0.00 68 1019.6
20260506214537 67 34 0.0 1.0 0.00 0.00 0.00 68 1019.6
20260506213036 67 50 0.0 4.0 0.00 0.00 0.00 69 1019.7
20260506211537 67 31 0.0 7.0 0.00 0.00 0.00 69 1019.7
20260506210035 68 86 0.0 5.0 0.00 0.00 0.00 68 1019.7
20260506204535 67 221 0.0 4.0 0.00 0.00 0.00 69 1019.8
20260506203043 66 235 0.0 6.0 0.00 0.00 0.00 70 1019.9
20260506201529 66 153 0.0 4.0 0.00 0.00 0.00 70 1019.9
20260506200031 65 211 1.0 5.0 0.00 0.00 0.00 72 1019.9
20260506194526 65 114 0.0 4.0 0.00 0.00 0.00 74 1020.2
20260506193023 64 80 0.0 1.0 0.00 0.00 0.00 74 1020.3
20260506191523 63 184 0.0 5.0 0.00 0.00 0.00 74 1020.3
20260506190033 63 71 0.0 3.0 0.00 0.00 0.00 75 1020.3
20260506184522 64 192 1.0 6.0 0.00 0.00 0.00 73 1020.2
20260506183019 63 148 1.0 6.0 0.00 0.00 0.00 76 1020.3
20260506181519 63 194 1.0 4.0 0.00 0.00 0.00 75 1020.2
20260506180015 62 207 1.0 7.0 0.00 0.00 0.00 79 1020.0
20260506174515 60 92 0.0 2.0 0.00 0.00 0.00 81 1020.3
20260506173009 59 199 0.0 4.0 0.00 0.00 0.00 83 1020.4
20260506171514 59 78 0.0 0.0 0.00 0.00 0.00 82 1020.3
20260506170008 59 199 0.0 3.0 0.00 0.00 0.00 83 1020.3
20260506164508 58 190 0.0 4.0 0.00 0.00 0.00 83 1020.2
20260506163004 57 188 0.0 0.0 0.00 0.00 0.00 84 1020.1
20260506161504 57 188 0.0 0.0 0.00 0.00 0.00 84 1020.4
20260506160004 56 188 0.0 0.0 0.00 0.00 0.00 84 1020.3
20260506154505 56 51 0.0 0.0 0.00 0.00 0.00 85 1020.1
20260506153001 56 51 0.0 0.0 0.00 0.00 0.00 85 1019.8
20260506151502 56 51 0.0 0.0 0.00 0.00 0.00 85 1019.7
20260506150100 56 51 0.0 0.0 0.00 0.00 0.00 87 1019.6
20260506144559 55 51 0.0 0.0 0.00 0.00 0.00 87 1020.3
20260506143058 55 51 0.0 0.0 0.00 0.00 0.00 89 1020.2
20260506141556 55 51 0.0 0.0 0.00 0.00 0.00 90 1020.0
20260506140054 54 51 0.0 0.0 0.00 0.00 0.00 90 1019.6
20260506134552 54 51 0.0 0.0 0.00 0.00 0.00 91 1019.2
20260506133052 54 51 0.0 0.0 0.00 0.00 0.00 91 1019.3
20260506131551 54 51 0.0 0.0 0.00 0.00 0.00 91 1019.1
20260506130048 54 51 0.0 0.0 0.00 0.00 0.00 92 1019.0
20260506124547 53 51 0.0 0.0 0.00 0.00 0.00 91 1018.8
20260506123048 54 51 0.0 0.0 0.00 0.00 0.00 90 1018.7
20260506121550 54 51 0.0 0.0 0.00 0.00 0.00 89 1018.6
20260506120041 55 51 0.0 0.0 0.00 0.00 0.00 88 1018.6
20260506114541 55 51 0.0 0.0 0.00 0.00 0.00 88 1018.5
20260506113036 56 51 0.0 0.0 0.00 0.00 0.00 88 1018.4
20260506111535 56 51 0.0 0.0 0.00 0.00 0.00 87 1018.3
20260506110036 56 51 0.0 0.0 0.00 0.00 0.00 87 1018.3
20260506104532 56 51 0.0 0.0 0.00 0.00 0.00 87 1018.1
20260506103030 56 51 0.0 0.0 0.00 0.00 0.00 87 1017.9
20260506101529 56 51 0.0 0.0 0.00 0.00 0.00 87 1017.7
20260506100030 56 51 0.0 0.0 0.00 0.00 0.00 88 1017.5
20260506094526 56 51 0.0 0.0 0.00 0.00 0.00 88 1017.4
20260506093023 56 51 0.0 0.0 0.00 0.00 0.00 89 1017.3
20260506091523 56 51 0.0 0.0 0.00 0.00 0.00 89 1017.3
20260506090024 56 51 0.0 0.0 0.00 0.00 0.00 89 1017.3
20260506084533 57 51 0.0 0.0 0.00 0.00 0.00 90 1017.3
20260506083024 57 51 0.0 0.0 0.00 0.00 0.00 89 1017.2
20260506081519 57 51 0.0 0.0 0.00 0.00 0.00 88 1017.2
20260506073014 57 51 0.0 0.0 0.00 0.00 0.00 90 1016.9
20260506071512 57 51 0.0 0.0 0.00 0.00 0.00 89 1016.8
20260506061509 58 51 0.0 0.0 0.00 0.00 0.00 86 1016.5
20260506044513 58 51 0.0 0.0 0.00 0.00 0.00 84 1016.2
20260506043005 58 51 0.0 0.0 0.00 0.00 0.00 85 1016.0
20260506041505 58 51 0.0 0.0 0.00 0.00 0.00 84 1015.8
20260506040004 59 51 0.0 0.0 0.00 0.00 0.00 82 1015.5
20260506034505 59 51 0.0 0.0 0.00 0.00 0.00 80 1015.3
20260506033006 60 51 0.0 0.0 0.00 0.00 0.00 79 1015.1
20260506031503 61 51 0.0 0.0 0.00 0.00 0.00 77 1015.0
20260506030003 62 51 0.0 0.0 0.00 0.00 0.00 76 1014.9
20260506024502 64 51 0.0 0.0 0.00 0.00 0.00 72 1014.8
20260506023002 65 51 0.0 1.0 0.00 0.00 0.00 71 1014.7
20260506021502 65 51 0.0 1.0 0.00 0.00 0.00 69 1014.6
20260506020002 66 50 0.0 1.0 0.00 0.00 0.00 68 1014.6